Home > Weather > Goch > Past weeks

Flag for Germany Past Weather in Goch, North Rhine-Westphalia, Germany — Yesterday and Last 2 Weeks

Now
63 °F

Broken clouds.


Feels Like: 63 °F
Forecast: 58 / 70 °F
Wind: 13 mph from Southwest

Location: Niederrhein

Current Time: Jun 30, 2016 at 12:24:03 PM

Latest Report: Jun 30, 2016 at 11:50 AM


Visibility: N/A

Pressure: 29.89 "Hg

Humidity: 77%

Dew Point: 55 °F

Location of GochLocation

Past Weather in Goch — Graph

°F

Goch Temperature Yesterday

Maximum temperature yesterday: 70 °F (at 3:20 PM)
Minimum temperature yesterday: 57 °F (at 4:50 AM)
Average temperature yesterday: 63 °F

High & Low Weather Summary for the Past Weeks

 TemperatureHumidityPressure
High90 °F (Jun 23, 4:50 PM)100% (Jun 16, 6:50 AM)30.27 "Hg (Jun 16, 6:50 AM)
Low52 °F (Jun 16, 5:50 AM)46% (Jun 19, 4:50 PM)29.47 "Hg (Jun 15, 10:50 AM)
Average64 °F80%29.97 "Hg
* Reported Jun 15 10:20 AM — Jun 30 10:50 AM, Goch, Weather by CustomWeather, © 2016

Note: Actual official high and low records may vary slightly from our data, if they occured in-between our weather recording intervals... More about our weather records

Advertising

Goch Weather History for the Previous 24 Hours

Scroll right to see more
 ConditionsComfort  
Time TempWeatherWind HumidityBarometerVisibility
10:50 AM
Thu, Jun 30
63 °FPartly sunny.12 mph83%29.89 "HgN/A
10:20 AM63 °FDrizzle. Partly sunny.10 mph88%29.89 "HgN/A
9:50 AM61 °FBroken clouds.10 mph88%29.86 "HgN/A
9:20 AM61 °FDrizzle. Broken clouds.10 mph88%29.86 "HgN/A
8:50 AM61 °FDrizzle. Partly sunny.10 mph88%29.86 "HgN/A
8:20 AM61 °FDrizzle. Partly sunny.9 mph88%29.86 "HgN/A
7:50 AM61 °FPartly sunny.9 mph88%29.86 "HgN/A
7:20 AM61 °FPartly cloudy.10 mph83%29.86 "HgN/A
6:50 AM61 °FPassing clouds.9 mph83%29.86 "HgN/A
6:20 AM61 °FPartly cloudy.8 mph83%29.86 "HgN/A
5:50 AM59 °FPassing clouds.8 mph88%29.83 "HgN/A
5:20 AM59 °FPassing clouds.7 mph88%29.83 "HgN/A
4:50 AM59 °FPassing clouds.6 mph88%29.83 "HgN/A
11:50 PM
Wed, Jun 29
61 °FSunny.3 mph77%29.83 "Hg10 mi
11:20 PM61 °FSunny.2 mph77%29.86 "Hg10 mi
10:50 PM63 °FSunny.No wind68%29.86 "Hg10 mi
9:50 PM64 °FSunny.3 mph64%29.86 "Hg10 mi
9:20 PM64 °FPassing clouds.5 mph64%29.86 "HgN/A
8:50 PM64 °FPassing clouds.6 mph64%29.86 "HgN/A
8:20 PM66 °FSunny.8 mph60%29.86 "Hg10 mi
7:50 PM66 °FSunny.10 mph56%29.86 "Hg10 mi
7:20 PM68 °FPassing clouds.10 mph53%29.86 "HgN/A
6:50 PM68 °FPassing clouds.12 mph56%29.86 "HgN/A
6:20 PM68 °FPassing clouds.12 mph53%29.86 "HgN/A
5:50 PM70 °FSunny.12 mph50%29.86 "Hg10 mi
5:20 PM68 °FPassing clouds.14 mph53%29.89 "HgN/A
4:50 PM68 °FSunny.14 mph53%29.89 "Hg10 mi
4:20 PM68 °FSunny.14 mph53%29.89 "Hg10 mi
3:50 PM70 °FPassing clouds.13 mph50%29.89 "HgN/A
3:20 PM70 °FPassing clouds.13 mph46%29.89 "HgN/A
2:50 PM66 °FScattered clouds.14 mph56%29.89 "HgN/A
2:20 PM68 °FScattered clouds.17 mph56%29.89 "HgN/A
1:50 PM66 °FScattered clouds.14 mph60%29.89 "HgN/A
1:20 PM66 °FScattered clouds.17 mph60%29.89 "HgN/A
12:50 PM66 °FScattered clouds.15 mph64%29.89 "HgN/A
12:20 PM64 °FBroken clouds.14 mph73%29.89 "HgN/A
Weather by CustomWeather, © 2016

See weather overviewHow to use our weather pages